QPF
0.00 0.00 0.00 0.00 0.00 0.00 0.00 0.00 0.01 0.03 0.07 0.05 0.00 0.00 0.00 0.02 0.01 0.02 0.02 0.00 0.00 0.00 0.00 0.04 0.17 0.16 0.13 0.25 0.25 0.16 0.30 0.35 0.32 0.14 0.03 0.06 0.00 0.00 0.02 0.01 0.03 0.01 0.00 0.00
0.00 0.00 0.00 0.00 0.01 0.00 0.00 0.00 0.02 0.03 0.04 0.07 0.01 0.00 0.01 0.03 0.02 0.01 0.02 0.00 0.00 0.00 0.00 0.00 0.05 0.21 0.21 0.17 0.17 0.13 0.14 0.18 0.21 0.22 0.15 0.20 0.03 0.00 0.04 0.06 0.04 0.00 0.00 0.00
0.00 0.00 0.00 0.00 0.01 0.00 0.00 0.00 0.02 0.02 0.05 0.03 0.02 0.01 0.01 0.01 0.01 0.00 0.00 0.00 0.00 0.00 0.00 0.00 0.00 0.06 0.15 0.20 0.17 0.07 0.05 0.05 0.09 0.24 0.30 0.29 0.22 0.12 0.05 0.00 0.00 0.00 0.00 0.00
0.00 0.00 0.00 0.00 0.01 0.00 0.00 0.00 0.01 0.01 0.01 0.02 0.01 0.00 0.00 0.00 0.00 0.00 0.00 0.00 0.00 0.00 0.00 0.00 0.00 0.00 0.01 0.00 0.06 0.19 0.07 0.01 0.05 0.14 0.22 0.24 0.07 0.09 0.05 0.06 0.02 0.02 0.02 0.00
0.00 0.00 0.00 0.01 0.00 0.00 0.00 0.00 0.00 0.00 0.00 0.00 0.00 0.00 0.00 0.00 0.00 0.00 0.00 0.00 0.00 0.00 0.00 0.00 0.00 0.00 0.00 0.00 0.02 0.02 0.14 0.15 0.11 0.16 0.18 0.09 0.16 0.17 0.13 0.08 0.02 0.09 0.13 0.11
0.00 0.00 0.00 0.01 0.00 0.00 0.00 0.01 0.01 0.01 0.00 0.00 0.00 0.00 0.00 0.00 0.00 0.00 0.00 0.00 0.00 0.00 0.00 0.00 0.00 0.00 0.00 0.01 0.02 0.03 0.03 0.01 0.05 0.03 0.06 0.05 0.03 0.01 0.01 0.10 0.27 0.26 0.32 0.26
0.00 0.01 0.01 0.01 0.00 0.00 0.01 0.01 0.02 0.02 0.01 0.00 0.00 0.00 0.00 0.00 0.00 0.00 0.00 0.00 0.00 0.00 0.00 0.00 0.00 0.00 0.00 0.01 0.01 0.03 0.03 0.03 0.09 0.11 0.05 0.01 0.02 0.00 0.01 0.08 0.13 0.11 0.10 0.08
0.02 0.01 0.01 0.00 0.00 0.00 0.00 0.00 0.00 0.01 0.00 0.00 0.00 0.00 0.00 0.00 0.00 0.00 0.00 0.00 0.00 0.00 0.00 0.00 0.00 0.00 0.00 0.00 0.02 0.03 0.02 0.05 0.05 0.04 0.03 0.02 0.02 0.02 0.03 0.02 0.02 0.00 0.00 0.00
0.00 0.00 0.01 0.00 0.00 0.00 0.00 0.00 0.00 0.00 0.00 0.00 0.00 0.00 0.00 0.00 0.00 0.00 0.00 0.00 0.00 0.00 0.00 0.00 0.00 0.00 0.00 0.00 0.00 0.00 0.01 0.01 0.02 0.02 0.02 0.01 0.00 0.02 0.00 0.00 0.00 0.00 0.00 0.00
0.00 0.00 0.00 0.00 0.00 0.00 0.00 0.00 0.00 0.00 0.00 0.00 0.00 0.00 0.00 0.00 0.00 0.00 0.00 0.00 0.00 0.00 0.00 0.00 0.00 0.00 0.00 0.00 0.00 0.00 0.01 0.01 0.01 0.01 0.01 0.01 0.01 0.01 0.00 0.00 0.00 0.00 0.00 0.00
0.00 0.00 0.00 0.00 0.00 0.00 0.00 0.00 0.00 0.00 0.00 0.00 0.00 0.00 0.00 0.00 0.00 0.00 0.00 0.00 0.00 0.00 0.00 0.00 0.00 0.00 0.00 0.00 0.00 0.00 0.00 0.00 0.01 0.02 0.01 0.01 0.00 0.00 0.00 0.00 0.00 0.00 0.00 0.00
0.00 0.00 0.00 0.00 0.00 0.00 0.00 0.00 0.00 0.00 0.00 0.00 0.00 0.00 0.00 0.00 0.00 0.00 0.00 0.00 0.00 0.00 0.00 0.00 0.00 0.00 0.00 0.00 0.00 0.00 0.00 0.00 0.00 0.02 0.02 0.01 0.00 0.00 0.00 0.00 0.00 0.00 0.00 0.00
0.00 0.00 0.00 0.00 0.00 0.00 0.00 0.00 0.00 0.00 0.00 0.00 0.00 0.00 0.00 0.00 0.00 0.00 0.00 0.00 0.00 0.00 0.00 0.00 0.00 0.00 0.00 0.00 0.00 0.00 0.00 0.00 0.00 0.00 0.00 0.00 0.00 0.00 0.00 0.00 0.00 0.00 0.00 0.00
0.00 0.00 0.00 0.00 0.00 0.00 0.00 0.00 0.00 0.00 0.00 0.00 0.00 0.00 0.00 0.00 0.00 0.00 0.00 0.00 0.00 0.00 0.00 0.00 0.00 0.00 0.00 0.00 0.00 0.00 0.00 0.00 0.00 0.00 0.00 0.00 0.00 0.00 0.00 0.00 0.00 0.00 0.00 0.00
0.00 0.00 0.00 0.00 0.00 0.00 0.00 0.00 0.00 0.00 0.00 0.00 0.00 0.00 0.00 0.00 0.00 0.00 0.00 0.00 0.00 0.00 0.00 0.00 0.00 0.00 0.00 0.00 0.00 0.00 0.00 0.00 0.00 0.00 0.00 0.00 0.00 0.00 0.00 0.00 0.00 0.00 0.00 0.00
0.00 0.00 0.00 0.00 0.00 0.00 0.00 0.00 0.00 0.00 0.00 0.00 0.00 0.00 0.00 0.00 0.00 0.00 0.00 0.00 0.00 0.00 0.00 0.00 0.00 0.00 0.00 0.00 0.00 0.00 0.00 0.00 0.00 0.00 0.00 0.00 0.00 0.00 0.00 0.00 0.00 0.00 0.00 0.00
0.00 0.00 0.00 0.00 0.00 0.00 0.00 0.00 0.00 0.00 0.00 0.00 0.00 0.00 0.00 0.00 0.00 0.00 0.00 0.00 0.00 0.00 0.00 0.00 0.00 0.00 0.00 0.00 0.00 0.00 0.00 0.00 0.00 0.00 0.00 0.00 0.00 0.00 0.00 0.00 0.00 0.00 0.00 0.00
0.00 0.00 0.00 0.00 0.00 0.00 0.00 0.00 0.00 0.00 0.00 0.00 0.00 0.00 0.00 0.00 0.00 0.00 0.00 0.00 0.00 0.00 0.00 0.00 0.00 0.00 0.00 0.00 0.00 0.00 0.00 0.00 0.00 0.00 0.00 0.00 0.00 0.00 0.00 0.00 0.00 0.00 0.00 0.00
0.00 0.00 0.00 0.00 0.00 0.00 0.00 0.00 0.00 0.00 0.00 0.00 0.00 0.00 0.00 0.00 0.00 0.00 0.00 0.00 0.00 0.00 0.00 0.00 0.00 0.00 0.00 0.00 0.00 0.00 0.00 0.00 0.00 0.00 0.00 0.00 0.00 0.00 0.00 0.00 0.00 0.00 0.00 0.00
0.00 0.00 0.00 0.00 0.00 0.00 0.00 0.00 0.00 0.00 0.00 0.00 0.00 0.00 0.00 0.00 0.00 0.00 0.00 0.00 0.00 0.00 0.00 0.00 0.00 0.00 0.00 0.00 0.00 0.00 0.00 0.00 0.00 0.00 0.00 0.00 0.00 0.00 0.00 0.00 0.00 0.00 0.00 0.00
0.00 0.00 0.00 0.00 0.00 0.00 0.00 0.00 0.00 0.00 0.00 0.00 0.00 0.00 0.00 0.00 0.00 0.00 0.00 0.00 0.00 0.00 0.00 0.00 0.00 0.00 0.00 0.00 0.00 0.00 0.00 0.00 0.00 0.00 0.00 0.00 0.00 0.00 0.00 0.00 0.00 0.00 0.00 0.00
0.00 0.00 0.00 0.00 0.00 0.00 0.00 0.00 0.00 0.00 0.01 0.01 0.00 0.00 0.00 0.00 0.00 0.00 0.00 0.00 0.00 0.00 0.00 0.00 0.00 0.00 0.00 0.00 0.00 0.00 0.00 0.00 0.00 0.00 0.00 0.00 0.00 0.00 0.00 0.00 0.00 0.00 0.00 0.00
0.00 0.00 0.00 0.00 0.00 0.00 0.00 0.00 0.00 0.00 0.00 0.00 0.00 0.00 0.00 0.00 0.00 0.00 0.00 0.00 0.00 0.00 0.00 0.00 0.00 0.00 0.00 0.00 0.00 0.00 0.00 0.00 0.00 0.00 0.00 0.00 0.00 0.00 0.00 0.00 0.00 0.00 0.00 0.00
0.00 0.00 0.00 0.00 0.00 0.00 0.00 0.00 0.00 0.00 0.00 0.00 0.00 0.00 0.00 0.00 0.00 0.00 0.00 0.00 0.00 0.00 0.00 0.00 0.00 0.00 0.00 0.00 0.00 0.00 0.00 0.00 0.00 0.00 0.00 0.00 0.00 0.00 0.00 0.00 0.00 0.00 0.00 0.00
0.00 0.00 0.00 0.00 0.00 0.00 0.00 0.00 0.00 0.00 0.00 0.00 0.00 0.01 0.01 0.01 0.00 0.00 0.00 0.00 0.00 0.00 0.00 0.00 0.00 0.00 0.00 0.00 0.00 0.00 0.00 0.00 0.00 0.00 0.00 0.00 0.00 0.00 0.00 0.00 0.00 0.00 0.00 0.00
0.00 0.00 0.00 0.00 0.00 0.00 0.00 0.00 0.00 0.00 0.00 0.00 0.00 0.00 0.00 0.00 0.00 0.00 0.00 0.00 0.00 0.00 0.00 0.00 0.00 0.00 0.00 0.00 0.00 0.00 0.00 0.00 0.00 0.00 0.00 0.00 0.00 0.00 0.00 0.00 0.00 0.00 0.00 0.00
MSLP
1016.48 1016.49 1016.00 1015.25 1014.83 1014.40 1013.85 1012.79 1011.92 1011.11 1009.72 1010.44 1011.05 1010.62 1011.43 1011.83 1010.98 1011.40 1011.74 1011.00 1011.17 1010.88 1010.56 1010.44 1010.72 1010.28 1011.31 1011.65 1011.41 1011.69 1012.65 1013.16 1013.91 1014.57 1015.17 1015.78 1016.11 1016.38 1016.73 1016.99 1017.26 1017.55 1017.80 1018.20
1017.11 1016.41 1015.44 1015.06 1014.58 1014.32 1014.09 1012.82 1012.08 1010.92 1010.45 1010.52 1011.42 1011.35 1012.08 1012.41 1012.51 1012.50 1011.74 1011.04 1011.51 1011.17 1010.62 1010.52 1011.00 1011.07 1010.97 1011.55 1011.52 1011.89 1012.13 1012.76 1013.47 1014.26 1014.88 1015.36 1015.73 1016.25 1016.37 1016.95 1017.42 1017.33 1017.84 1017.92
1016.80 1015.74 1015.12 1014.66 1014.31 1014.15 1013.68 1012.86 1012.24 1011.37 1011.03 1010.92 1010.32 1011.20 1011.40 1012.07 1012.57 1011.25 1011.56 1011.64 1011.26 1011.10 1011.02 1010.82 1010.81 1011.11 1011.33 1011.60 1011.64 1011.74 1012.04 1012.45 1013.24 1014.07 1014.88 1015.22 1015.94 1016.50 1016.50 1016.93 1017.03 1017.26 1017.50 1017.76
1016.31 1015.57 1014.75 1014.22 1013.95 1013.96 1013.52 1013.02 1012.46 1011.96 1011.57 1011.88 1012.15 1012.08 1012.00 1011.70 1012.07 1011.87 1011.77 1011.02 1010.41 1010.54 1010.79 1010.86 1010.99 1010.99 1011.07 1010.98 1011.28 1011.48 1011.90 1012.42 1013.11 1013.63 1014.24 1014.89 1015.29 1015.85 1015.68 1016.64 1016.87 1017.37 1017.33 1017.50
1016.30 1015.62 1015.03 1014.05 1013.56 1013.78 1013.38 1012.97 1012.55 1012.68 1012.56 1012.31 1012.34 1012.54 1012.29 1012.31 1012.81 1012.10 1011.75 1010.57 1009.87 1010.38 1010.70 1010.72 1010.91 1010.89 1010.96 1011.07 1011.32 1011.62 1011.94 1012.45 1013.07 1013.72 1013.98 1014.70 1015.11 1015.76 1016.31 1016.55 1017.12 1017.61 1017.40 1017.68
1015.93 1015.52 1015.34 1014.07 1013.56 1013.58 1013.62 1013.21 1013.24 1013.23 1013.28 1013.34 1012.84 1012.77 1012.48 1011.96 1010.60 1011.12 1010.96 1011.12 1011.19 1010.40 1010.47 1010.58 1010.57 1010.76 1011.17 1011.48 1011.69 1011.94 1012.29 1012.60 1012.94 1013.49 1014.05 1014.43 1015.05 1015.75 1016.31 1016.78 1017.36 1017.39 1017.42 1017.50
1015.40 1015.11 1014.52 1013.64 1013.74 1013.74 1013.33 1012.83 1013.81 1014.00 1013.99 1013.62 1012.57 1011.76 1010.20 1009.92 1009.33 1008.96 1009.27 1009.94 1010.50 1011.00 1011.40 1010.73 1010.96 1010.94 1011.29 1011.85 1011.98 1012.24 1012.50 1012.88 1013.33 1013.82 1014.18 1014.74 1015.24 1015.61 1016.04 1016.51 1017.22 1017.67 1017.86 1017.98
1015.32 1014.74 1014.25 1014.04 1014.24 1014.21 1013.78 1013.84 1013.63 1013.67 1013.73 1013.54 1012.85 1012.14 1010.16 1008.92 1008.61 1008.15 1008.28 1009.04 1009.85 1010.17 1010.62 1010.73 1010.60 1010.91 1011.14 1011.67 1012.07 1012.66 1012.77 1013.24 1013.42 1013.95 1014.40 1014.82 1015.04 1015.46 1015.87 1016.29 1016.93 1017.39 1017.69 1017.92
1015.28 1015.05 1014.44 1014.34 1014.09 1014.22 1014.15 1014.12 1013.99 1013.90 1014.10 1013.70 1013.65 1011.92 1010.18 1009.59 1009.32 1008.58 1008.56 1009.02 1009.37 1009.48 1010.01 1010.37 1010.51 1010.78 1011.20 1011.68 1012.21 1012.65 1012.96 1013.45 1013.62 1013.90 1014.40 1014.92 1015.17 1015.81 1016.10 1016.58 1017.00 1017.44 1017.73 1018.03
1015.22 1015.26 1014.83 1014.37 1014.59 1014.32 1014.18 1014.60 1014.46 1014.33 1014.87 1015.04 1014.46 1013.07 1011.75 1011.05 1010.41 1009.70 1009.64 1009.73 1009.68 1010.01 1010.20 1010.25 1010.68 1010.84 1011.42 1011.61 1012.15 1012.90 1013.25 1013.60 1013.87 1014.28 1014.52 1014.92 1015.67 1016.17 1016.45 1016.85 1017.32 1017.80 1018.13 1018.34
1015.29 1015.40 1015.49 1015.04 1014.69 1014.77 1014.57 1014.50 1014.48 1014.75 1015.21 1015.31 1015.21 1014.24 1013.11 1012.28 1010.93 1010.50 1010.14 1010.14 1010.46 1010.66 1011.00 1010.90 1010.80 1011.13 1011.89 1011.90 1012.44 1013.16 1013.56 1013.78 1014.24 1014.58 1015.23 1015.67 1016.10 1016.62 1016.98 1017.43 1017.94 1018.41 1018.58 1018.95
1015.72 1015.77 1015.87 1015.46 1014.87 1014.64 1014.50 1014.59 1014.68 1014.90 1015.68 1015.60 1015.18 1014.21 1012.75 1011.79 1011.46 1011.44 1011.34 1011.05 1010.86 1010.73 1010.82 1011.12 1011.24 1011.77 1012.10 1012.59 1013.25 1013.60 1013.86 1014.22 1014.68 1015.14 1015.79 1016.12 1016.75 1017.12 1017.63 1018.08 1018.51 1018.88 1019.24 1019.55
1015.34 1015.80 1016.12 1015.45 1015.11 1014.65 1014.55 1014.49 1014.53 1014.95 1015.59 1016.27 1015.88 1014.59 1012.91 1012.33 1012.16 1012.01 1011.89 1011.93 1011.83 1011.98 1012.07 1011.85 1011.86 1011.98 1012.40 1012.83 1013.30 1013.89 1014.36 1014.73 1015.11 1015.37 1016.00 1016.82 1017.36 1017.69 1018.16 1018.51 1018.95 1019.33 1019.73 1020.15
1015.47 1015.54 1016.06 1016.06 1015.39 1015.04 1014.93 1014.75 1014.79 1015.20 1015.69 1016.13 1015.63 1014.64 1013.69 1012.99 1012.78 1012.63 1012.59 1012.78 1012.80 1012.79 1012.59 1012.38 1012.48 1012.91 1013.05 1013.13 1013.49 1014.17 1014.80 1014.77 1015.20 1015.82 1016.55 1017.13 1017.63 1018.01 1018.46 1018.92 1019.41 1019.78 1020.23 1020.49
1015.89 1016.03 1015.95 1015.41 1014.89 1014.85 1014.77 1014.68 1014.70 1015.18 1015.27 1015.11 1015.16 1014.42 1013.62 1013.21 1013.04 1012.79 1012.74 1012.84 1012.83 1012.96 1012.96 1012.92 1013.27 1013.19 1013.33 1013.79 1014.30 1014.69 1015.06 1015.17 1015.86 1016.21 1016.71 1017.54 1017.89 1018.28 1018.90 1019.40 1019.98 1020.20 1020.38 1020.68
1016.18 1016.28 1016.14 1015.66 1014.96 1014.65 1014.63 1014.63 1014.70 1014.65 1014.68 1014.62 1014.28 1013.95 1013.51 1013.35 1013.40 1013.17 1013.15 1012.85 1012.76 1012.85 1012.77 1012.92 1013.29 1013.43 1013.96 1014.26 1014.66 1015.06 1015.42 1015.82 1016.14 1016.69 1017.30 1017.79 1018.16 1018.86 1019.24 1020.05 1020.43 1020.30 1020.77 1021.17
1016.61 1016.76 1016.65 1016.18 1015.23 1014.53 1014.44 1014.40 1014.34 1014.20 1014.06 1013.96 1013.73 1013.41 1013.26 1013.47 1013.71 1014.02 1014.22 1013.98 1013.71 1013.46 1013.26 1013.37 1013.63 1013.81 1014.16 1014.66 1014.99 1015.55 1015.83 1016.07 1016.51 1016.83 1017.57 1017.96 1018.49 1018.96 1019.71 1020.02 1020.30 1020.98 1021.21 1021.52
1017.22 1017.07 1016.97 1016.58 1015.64 1015.36 1014.99 1014.29 1014.03 1013.96 1013.89 1013.62 1013.50 1013.49 1013.50 1013.62 1013.98 1014.28 1014.50 1014.42 1014.16 1013.90 1013.74 1013.73 1013.73 1013.95 1014.07 1014.37 1014.89 1015.27 1015.69 1016.18 1016.69 1017.60 1017.84 1018.12 1018.59 1019.17 1019.59 1020.00 1020.78 1021.21 1021.47 1021.77
1017.49 1017.44 1017.38 1017.14 1016.65 1015.91 1014.92 1014.51 1014.44 1014.27 1014.25 1013.87 1013.73 1013.72 1013.71 1013.92 1014.23 1014.63 1014.65 1014.57 1014.61 1014.62 1014.41 1014.30 1014.10 1013.91 1014.14 1014.55 1015.09 1015.45 1015.95 1016.48 1016.96 1017.37 1017.79 1018.22 1018.69 1019.27 1019.71 1020.41 1021.07 1021.28 1021.59 1021.87
1017.35 1017.57 1017.73 1017.24 1016.84 1016.16 1015.35 1014.68 1014.27 1014.08 1014.36 1014.04 1013.90 1013.99 1014.13 1014.21 1014.72 1015.01 1015.17 1015.29 1015.30 1015.13 1014.85 1014.36 1014.05 1013.75 1014.02 1014.47 1014.83 1015.37 1016.03 1016.50 1016.88 1017.40 1017.62 1018.10 1018.66 1019.17 1019.77 1020.26 1020.91 1021.39 1021.59 1021.90
1017.62 1017.81 1017.95 1017.67 1017.03 1016.41 1015.47 1014.96 1014.69 1014.90 1015.36 1014.26 1014.09 1014.27 1014.46 1014.88 1015.30 1015.47 1015.42 1015.57 1015.58 1015.37 1015.02 1014.59 1014.26 1014.20 1014.17 1014.54 1015.07 1015.62 1016.19 1016.46 1016.88 1017.20 1017.57 1018.12 1018.71 1019.14 1019.55 1020.27 1020.90 1021.33 1021.44 1021.72
1017.54 1017.80 1017.92 1017.65 1017.30 1016.99 1015.99 1015.51 1015.52 1015.70 1015.08 1014.78 1014.60 1014.63 1014.85 1015.08 1015.38 1015.72 1015.99 1016.13 1016.07 1015.93 1015.70 1015.46 1015.14 1015.10 1015.04 1015.04 1015.35 1015.95 1016.33 1016.60 1016.82 1017.23 1017.67 1018.21 1018.52 1018.95 1019.61 1020.32 1020.91 1021.18 1021.29 1021.59
1017.48 1017.47 1017.57 1017.65 1017.29 1016.90 1016.60 1016.35 1016.22 1015.85 1015.39 1015.06 1014.96 1014.88 1015.11 1015.56 1015.95 1016.24 1016.52 1016.60 1016.73 1016.67 1016.44 1016.23 1015.98 1015.81 1015.81 1015.79 1015.81 1016.27 1016.54 1016.68 1016.99 1017.37 1017.76 1018.15 1018.57 1019.18 1019.60 1020.20 1020.66 1021.03 1021.25 1021.51
1017.44 1017.19 1017.41 1017.56 1017.48 1017.21 1016.89 1016.54 1016.42 1016.13 1015.91 1015.54 1015.28 1015.20 1015.47 1015.81 1016.24 1016.71 1016.98 1017.13 1017.21 1017.14 1017.02 1016.87 1016.66 1016.61 1016.63 1016.54 1016.50 1016.65 1016.77 1016.86 1017.21 1017.64 1018.02 1018.43 1018.90 1019.28 1019.68 1020.03 1020.26 1020.58 1020.85 1021.00
1017.88 1017.59 1017.57 1017.71 1017.59 1017.44 1017.30 1017.14 1016.90 1016.58 1016.32 1016.17 1015.97 1015.73 1015.76 1016.00 1016.39 1016.78 1017.15 1017.47 1017.66 1017.64 1017.52 1017.49 1017.48 1017.44 1017.54 1017.41 1017.37 1017.33 1017.31 1017.35 1017.66 1017.98 1018.32 1018.60 1018.84 1019.16 1019.48 1019.61 1019.80 1020.09 1020.13 1020.39
1017.72 1017.51 1017.54 1017.38 1017.41 1017.49 1017.38 1017.28 1017.28 1017.05 1017.07 1016.79 1016.57 1016.37 1016.20 1016.10 1016.47 1016.99 1017.41 1017.75 1018.02 1018.15 1018.20 1018.19 1018.14 1018.05 1018.06 1017.99 1018.08 1018.10 1017.94 1017.85 1018.00 1018.19 1018.40 1018.61 1018.78 1018.90 1019.14 1019.37 1019.56 1019.58 1019.69 1019.84
Thickness
5396 5386 5391 5420 5434 5442 5448 5471 5487 5511 5536 5534 5536 5550 5552 5555 5576 5591 5599 5615 5621 5633 5645 5655 5659 5671 5670 5670 5678 5686 5683 5688 5688 5686 5685 5684 5688 5689 5689 5689 5688 5687 5689 5687
5382 5385 5419 5430 5441 5443 5445 5469 5484 5510 5530 5537 5530 5542 5547 5545 5560 5574 5592 5609 5612 5622 5639 5649 5652 5657 5669 5670 5673 5676 5683 5685 5684 5679 5676 5680 5681 5682 5684 5681 5680 5682 5681 5683
5384 5409 5424 5435 5437 5446 5452 5474 5481 5511 5519 5526 5543 5540 5547 5545 5554 5568 5584 5597 5610 5619 5628 5642 5650 5654 5657 5662 5669 5674 5678 5681 5682 5682 5674 5675 5673 5673 5673 5674 5677 5677 5676 5678
5395 5412 5428 5443 5449 5451 5462 5480 5495 5507 5520 5524 5524 5532 5536 5545 5555 5567 5577 5594 5610 5618 5626 5635 5642 5650 5656 5665 5668 5672 5673 5677 5677 5677 5677 5673 5673 5668 5674 5672 5671 5670 5673 5673
5392 5413 5429 5450 5463 5457 5472 5486 5494 5494 5508 5519 5523 5528 5535 5541 5546 5560 5573 5593 5610 5616 5621 5631 5636 5646 5651 5659 5663 5667 5671 5673 5674 5671 5673 5669 5669 5668 5665 5664 5665 5663 5666 5664
5406 5423 5428 5451 5467 5467 5464 5486 5496 5500 5505 5499 5523 5528 5532 5543 5568 5562 5577 5585 5593 5608 5618 5625 5632 5640 5643 5648 5655 5660 5664 5667 5667 5668 5668 5668 5664 5661 5661 5660 5657 5658 5659 5658
5432 5437 5443 5466 5463 5461 5468 5497 5496 5500 5502 5499 5525 5534 5552 5558 5573 5580 5585 5593 5597 5600 5601 5617 5623 5631 5638 5641 5646 5651 5655 5657 5659 5656 5657 5657 5656 5656 5657 5656 5651 5648 5648 5647
5442 5454 5461 5464 5457 5463 5474 5485 5468 5502 5502 5511 5521 5531 5553 5570 5577 5589 5598 5596 5600 5606 5607 5617 5625 5628 5633 5637 5641 5640 5645 5646 5650 5650 5649 5649 5651 5652 5652 5651 5646 5642 5640 5638
5447 5450 5467 5463 5466 5471 5476 5487 5493 5492 5499 5503 5517 5534 5556 5565 5570 5584 5590 5595 5599 5606 5610 5616 5621 5626 5629 5630 5632 5634 5637 5638 5641 5642 5642 5641 5643 5642 5642 5641 5639 5635 5632 5628
5452 5450 5470 5476 5471 5474 5481 5483 5504 5472 5483 5511 5516 5528 5541 5547 5559 5574 5581 5586 5596 5602 5607 5613 5616 5623 5621 5626 5624 5624 5627 5629 5631 5631 5635 5636 5633 5631 5632 5631 5628 5625 5622 5619
5461 5456 5461 5471 5472 5470 5478 5476 5498 5508 5486 5500 5505 5527 5539 5541 5553 5567 5573 5582 5588 5592 5593 5600 5610 5614 5611 5617 5616 5614 5617 5621 5622 5622 5620 5621 5621 5619 5620 5618 5614 5611 5609 5605
5465 5455 5439 5465 5486 5489 5492 5497 5499 5487 5503 5480 5464 5518 5537 5541 5553 5560 5564 5571 5576 5585 5590 5593 5599 5598 5602 5605 5603 5606 5607 5610 5610 5611 5608 5610 5606 5607 5605 5604 5601 5599 5595 5590
5478 5467 5435 5458 5487 5494 5491 5501 5509 5496 5481 5500 5465 5507 5540 5545 5550 5555 5558 5561 5565 5572 5574 5577 5587 5593 5594 5596 5598 5597 5596 5596 5598 5600 5599 5594 5593 5593 5591 5589 5587 5585 5580 5575
5484 5483 5459 5448 5485 5487 5481 5497 5505 5474 5464 5499 5475 5515 5532 5539 5545 5549 5553 5554 5556 5559 5566 5571 5572 5575 5580 5585 5587 5584 5583 5589 5589 5588 5587 5585 5583 5581 5579 5577 5574 5571 5566 5563
5481 5479 5486 5497 5500 5494 5497 5501 5506 5476 5496 5480 5505 5519 5528 5531 5536 5543 5548 5552 5554 5556 5559 5562 5560 5563 5567 5569 5570 5570 5572 5577 5575 5577 5578 5573 5572 5571 5566 5564 5560 5559 5557 5554
5479 5478 5477 5476 5503 5503 5502 5501 5502 5512 5504 5509 5510 5517 5523 5527 5528 5528 5533 5545 5548 5552 5556 5557 5557 5558 5556 5557 5560 5562 5562 5562 5564 5564 5563 5562 5561 5556 5556 5549 5546 5550 5546 5542
5483 5469 5464 5476 5489 5510 5489 5501 5500 5510 5515 5509 5514 5520 5525 5525 5523 5519 5518 5524 5530 5537 5547 5548 5547 5549 5549 5547 5548 5548 5550 5552 5553 5554 5550 5551 5548 5547 5543 5541 5540 5535 5534 5531
5466 5469 5468 5468 5484 5482 5495 5501 5505 5508 5509 5515 5516 5518 5519 5521 5514 5511 5511 5517 5523 5526 5532 5538 5540 5541 5543 5544 5543 5543 5544 5543 5543 5538 5539 5540 5539 5536 5534 5532 5526 5523 5522 5520
5459 5464 5472 5471 5468 5487 5497 5498 5496 5503 5502 5504 5509 5512 5514 5511 5511 5512 5509 5512 5514 5516 5522 5526 5530 5535 5535 5535 5533 5534 5533 5533 5534 5532 5531 5531 5529 5526 5524 5519 5514 5513 5511 5509
5460 5458 5462 5460 5466 5485 5491 5496 5499 5503 5492 5504 5506 5506 5505 5506 5502 5504 5501 5503 5505 5508 5512 5517 5523 5531 5530 5529 5528 5527 5525 5524 5524 5522 5524 5522 5519 5517 5514 5511 5506 5502 5501 5499
5457 5456 5460 5461 5454 5471 5486 5490 5491 5489 5483 5501 5502 5501 5500 5498 5493 5492 5495 5495 5497 5501 5505 5509 5514 5520 5522 5520 5519 5517 5514 5515 5516 5516 5514 5512 5508 5507 5505 5500 5495 5492 5492 5489
5463 5448 5453 5449 5461 5459 5472 5486 5490 5477 5486 5490 5493 5493 5492 5489 5490 5489 5485 5485 5487 5491 5494 5497 5500 5501 5504 5508 5509 5506 5505 5506 5505 5504 5503 5500 5500 5498 5493 5488 5484 5482 5482 5479
5466 5458 5457 5455 5458 5459 5462 5467 5467 5469 5478 5484 5485 5487 5484 5481 5481 5480 5478 5478 5477 5478 5482 5484 5488 5491 5491 5493 5497 5496 5495 5495 5494 5494 5492 5491 5488 5484 5481 5478 5475 5472 5470 5468
5465 5457 5454 5456 5455 5453 5453 5461 5459 5462 5468 5472 5475 5479 5473 5473 5472 5468 5467 5467 5468 5469 5471 5474 5476 5478 5479 5481 5483 5483 5484 5485 5484 5482 5480 5477 5475 5473 5470 5468 5468 5465 5463 5461
5457 5459 5454 5448 5452 5451 5452 5450 5453 5456 5458 5461 5461 5465 5466 5464 5464 5463 5459 5457 5456 5458 5461 5462 5463 5465 5464 5466 5468 5469 5471 5472 5471 5470 5467 5466 5465 5465 5462 5462 5460 5458 5457 5454
5459 5462 5456 5463 5447 5447 5449 5449 5447 5448 5447 5449 5453 5455 5456 5460 5456 5450 5447 5446 5445 5444 5445 5447 5449 5452 5452 5453 5453 5454 5457 5459 5459 5459 5458 5457 5457 5455 5454 5452 5451 5451 5449 5448